Wind_Speed
13 14 15 15 17 19 20 22 22 25 28 28 31 34 36 38 39 40 41 42 46 49
16 13 13 16 17 19 20 22 23 24 27 28 30 32 35 38 41 42 42 45 44 46
19 18 18 17 16 17 18 19 22 24 25 27 29 32 32 36 39 40 42 45 46 47
21 21 21 19 19 19 21 20 20 21 22 25 27 29 32 34 38 41 43 43 44 45
22 22 22 23 25 26 26 25 24 25 26 26 26 28 31 35 39 41 43 45 44 47
19 21 21 23 24 25 26 29 32 33 34 34 32 31 31 32 38 42 42 44 45 46
22 25 28 31 33 35 36 36 34 31 32 34 35 35 35 35 36 39 40 43 43 43
26 26 27 31 31 32 32 33 34 36 37 35 33 33 36 37 38 38 39 42 42 46
25 30 33 34 36 36 36 36 34 34 33 33 33 34 37 38 38 39 38 39 42 45
23 25 27 27 27 29 31 32 33 32 33 34 35 36 35 36 38 41 39 39 41 44
28 28 29 28 29 30 30 29 30 31 31 33 34 34 36 37 38 39 39 38 40 38
27 29 29 29 30 31 31 32 32 32 32 31 32 31 32 34 38 38 38 42 42 38
27 28 30 31 33 32 32 32 33 32 29 29 31 31 34 34 35 39 36 37 48 51
27 29 29 31 31 33 34 34 33 32 30 31 31 34 38 34 35 35 37 39 39 41
Wind_Direction
317 304 292 286 284 280 272 267 265 269 270 264 257 257 258 258 259 259 257 254 255 257
349 336 317 304 295 287 284 280 273 261 261 266 266 258 255 255 259 257 254 260 263 261
350 345 338 332 324 313 302 291 286 283 276 273 266 265 256 253 256 255 254 256 258 263
344 342 339 337 333 329 323 318 310 301 291 284 277 271 269 262 258 255 256 252 253 256
332 331 330 328 326 325 323 323 323 321 314 306 295 285 274 268 264 259 256 257 254 253
326 323 324 321 318 317 313 313 312 313 313 314 313 307 300 291 278 270 264 261 257 257
327 329 328 326 324 321 319 314 310 308 309 308 310 309 309 309 302 289 278 269 265 259
324 325 327 326 326 325 324 322 321 315 311 306 305 307 309 310 310 307 297 283 272 264
324 322 321 320 321 322 322 322 318 315 313 311 309 304 300 301 307 306 308 296 280 272
322 319 317 318 319 318 317 316 315 312 311 308 305 309 311 313 309 306 304 305 296 279
321 320 319 319 319 318 317 315 312 312 310 309 312 313 310 313 312 310 306 310 308 289
323 321 322 322 320 321 321 320 318 316 316 316 314 315 316 315 314 311 307 299 310 304
320 320 319 319 319 319 319 317 318 317 319 318 316 317 315 318 321 319 313 296 289 299
322 321 319 317 318 318 318 318 317 317 319 320 324 323 325 331 327 327 320 311 299 281
Height
1446 1444 1442 1440 1439 1437 1434 1433 1432 1429 1426 1424 1424 1422 1422 1420 1419 1417 1416 1415 1415 1414
1445 1442 1439 1437 1434 1432 1431 1428 1426 1425 1423 1419 1418 1415 1414 1412 1409 1408 1407 1404 1403 1401
1445 1442 1439 1435 1431 1428 1426 1423 1421 1419 1417 1414 1412 1410 1408 1406 1403 1400 1397 1395 1393 1390
1444 1441 1438 1434 1430 1426 1423 1419 1415 1413 1410 1408 1406 1404 1401 1398 1395 1392 1388 1388 1385 1382
1443 1439 1436 1433 1429 1425 1420 1417 1412 1408 1405 1402 1399 1396 1394 1390 1387 1382 1379 1377 1378 1373
1441 1436 1432 1429 1426 1423 1417 1413 1409 1404 1401 1397 1393 1389 1385 1382 1379 1375 1370 1368 1367 1365
1438 1432 1428 1425 1422 1417 1413 1407 1403 1399 1395 1391 1386 1383 1379 1374 1370 1365 1360 1358 1355 1355
1435 1430 1424 1421 1416 1412 1407 1402 1397 1392 1388 1384 1381 1377 1373 1369 1362 1356 1352 1349 1346 1343
1430 1426 1422 1416 1411 1406 1401 1397 1392 1388 1383 1379 1375 1371 1367 1363 1355 1349 1343 1339 1336 1333
1424 1420 1416 1411 1406 1401 1397 1392 1387 1382 1377 1371 1366 1362 1358 1354 1348 1341 1336 1330 1326 1323
1419 1414 1409 1405 1401 1397 1391 1386 1381 1376 1370 1364 1360 1356 1352 1347 1339 1332 1327 1322 1318 1315
1413 1409 1405 1400 1395 1390 1385 1380 1375 1369 1364 1359 1354 1351 1346 1339 1331 1323 1318 1313 1310 1308
1409 1405 1400 1395 1390 1385 1381 1375 1369 1364 1360 1355 1349 1344 1337 1332 1325 1315 1309 1303 1301 1298
1405 1400 1396 1391 1386 1380 1375 1369 1365 1360 1355 1349 1343 1336 1330 1325 1319 1313 1304 1298 1292 1289